User: anonymous   Login
Location: ?????????
(53.2086°N, 54.0693°E)
Time: 08:58:21
(UTC+00:00)
Language:

Exosat Rocket - Orbit

View from above orbital plane
View from above orbital plane
View from above satellite
View from above satellite

Ground track
Ground track

The orbit data is extracted from the following two-line orbital elements,

1 14096U 83051B   20055.57063431 +.00000486 +00000-0 +85017-3 0  9990
2 14096 072.2966 216.2115 1095555 323.2813 029.7738 12.09718401622474
Epoch (UTC): 24 February 2020 13:41:42
Eccentricity: 0.1095555
inclination: 72.2966°
perigee height: 759 km
apogee height: 2516 km
right ascension of ascending node: 216.2115°
argument of perigee: 323.2813°
revolutions per day: 12.09718401
mean anomaly at epoch: 29.7738°
orbit number at epoch: 62247

The dashed part of the orbit path shows where the satellite is in the earth's shadow,  

DLR